Miscellaneous Local Product
Issued by NWS Hastings, NE

Home | Current Version | Previous Version | Text Only | Print | Product List | Glossary Off
Versions: 1 2 3 4 5 6 7 8 9 10 11 12 13 14 15 16 17 18 19 20 21 22 23 24 25 26 27 28 29 30 31 32 33 34 35 36 37 38 39 40 41 42 43 44 45 46 47 48 49 50

072
AXUS43 KGID 200802
MISGRI

GID CWA HOURLY WEATHER ROUNDUP
NATIONAL WEATHER SERVICE HASTINGS NE
200 AM CST FRI JAN 20 2017

NOTE: "FAIR" INDICATES FEW OR NO CLOUDS BELOW 12,000 FEET WITH NO
SIGNIFICANT WEATHER AND/OR OBSTRUCTIONS TO VISIBILITY.

...SOUTH CENTRAL NEBRASKA...

CITY           SKY/WX    TMP DP  RH WIND       PRES   REMARKS
GRAND ISLAND   FOG       37  37 100 S3        29.56F VSB 1
HASTINGS       FOG       38  37  97 CALM      29.56F VSB 1/2
KEARNEY        CLOUDY    37  34  87 CALM      29.54F VSB 1/2
ORD            CLOUDY    39  36  89 S7        29.52F WCI  34
YORK           FOG       37  37 100 CALM      29.57F VSB 1/2
AURORA         FOG       37  37 100 CALM      29.56F VSB 1/4
LEXINGTON      CLOUDY    37  35  95 E3        29.51F FOG
HOLDREGE       FOG       35  34  97 N3        29.52F VSB 1/4
HEBRON         FOG       38  38  99 CALM      29.57F VSB 1/4

...NEBRASKA PANHANDLE...

CITY           SKY/WX    TMP DP  RH WIND       PRES   REMARKS
CHADRON        CLOUDY    21  17  84 W9        29.45F WCI  11
ALLIANCE       CLOUDY    19  16  88 W7        29.46F WCI  10
SCOTTSBLUFF    CLOUDY    26  21  81 NE3       29.48F
SIDNEY         CLOUDY    28  22  78 NW5       29.48S WCI  23

...WESTERN AND NORTH CENTRAL NEBRASKA...

CITY           SKY/WX    TMP DP  RH WIND       PRES   REMARKS
VALENTINE      CLOUDY    24  21  88 SW9       29.43F WCI  14
AINSWORTH      CLOUDY    33  32  99 S12       29.44F FOG     WCI  24
ONEILL         CLOUDY    41  39  90 S12       29.49F
BROKEN BOW     CLOUDY    38  36  92 S7        29.50F WCI  33
IMPERIAL       FOG       31  30  96 SW6       29.49F VSB 1/4 WCI  25
NORTH PLATTE   CLOUDY    37  35  92 W7        29.51F WCI  32
MCCOOK         FOG       33  33 100 S5        29.51S VSB 1/2 WCI  29

...EASTERN NEBRASKA...

CITY           SKY/WX    TMP DP  RH WIND       PRES   REMARKS
NORFOLK        FOG       37  36  96 S8        29.55F VSB 3/4 WCI  31
SO SIOUX CITY  FOG       38  38 100 SE5       29.59S VSB 1/2 WCI  34
TEKAMAH        FOG       36  35  96 SW3       29.59F VSB 1/4
COLUMBUS       CLOUDY    37  36  93 S5        29.59S VSB 1/2 WCI  34
ALBION         CLOUDY   N/A N/A N/A CALM      29.54F HAZE
OMAHA EPPLEY   FOG       37  34  89 N3        29.60S VSB 1/4
MILLARD        FOG       41  40  97 CALM      29.60S VSB 3/4
LINCOLN        FOG       39  38  96 CALM      29.60S VSB 1/2
NEBRASKA CITY  FOG       38  38 100 CALM      29.59S VSB 1/4
BEATRICE       CLOUDY    40  40 100 E5        29.58S FOG
FALLS CITY     FOG       41  41 100 E3        29.59S VSB 1/2

...NORTHERN KANSAS...

CITY           SKY/WX    TMP DP  RH WIND       PRES   REMARKS
GOODLAND       FOG       30  30 100 SW5       29.48F VSB 1/2 WCI  25
HILL CITY      FOG       40  40 100 CALM      29.52F VSB 1/4
NORTON         FOG       36  34  93 CALM      29.51S VSB 1/2
PHILLIPSBURG   FOG       39  39 100 CALM      29.54S VSB 1/4
SMITH CENTER   FOG       37  37 100 E6        29.54F VSB 1/4 WCI  33
HAYS           FOG       42  41  96 CALM      29.52F VSB 1/4
RUSSELL        FOG       42  42 100 E7        29.49F VSB 1/4
CONCORDIA      FOG       40  40 100 CALM      29.55F VSB 1/4
SALINA           N/A    N/A N/A N/A MISG        N/A
TOPEKA         FOG       45  43  93 E3        29.59S VSB 1/4



USA.gov is the U.S. government's official web portal to all federal, state and local government web resources and services.